Home > Weather > Shanghai > Past weeks

Flag for China Weather for the Past 2 Weeks in Shanghai, Shanghai Municipality, China

Now
34 °F

Clear.


Feels Like: 25 °F
Forecast: 29 / 41 °F
Wind: 13 mph from North

Location: Shanghai Hongqiao Airport

Current Time: Feb 14, 2016 at 11:37:29 PM

Latest Report: Feb 14, 2016 at 11:00 PM


Visibility: 10 mi

Pressure: 30.45 "Hg

Humidity: 48%

Dew point: 16 °F

Location of ShanghaiLocation

Historic Weather in Shanghai — Graph

°F

Shanghai Temperature Yesterday

Maximum temperature yesterday: 61 °F (at 10:30 AM)
Minimum temperature yesterday: 43 °F (at 11:30 PM)
Average temperature yesterday: 54 °F

High & Low Weather Summary for the Past Weeks

 TemperatureHumidityPressure
High73 °F (Feb 12, 3:30 PM)100% (Jan 31, 7:30 PM)30.60 "Hg (Jan 31, 7:30 PM)
Low28 °F (Feb 2, 5:30 AM)21% (Feb 8, 4:00 PM)29.68 "Hg (Feb 13, 3:30 AM)
Average45 °F66%30.25 "Hg
* Reported Jan 30 10:00 PM — Feb 14 10:30 PM, Shanghai, Weather by CustomWeather, © 2016

Note: Actual official high and low records may vary slightly from our data, if they occured in-between our weather recording intervals... More about our weather records

Advertising

Shanghai Weather History for the Previous 24 Hours

 ConditionsComfort  
Time TempWeatherWind HumidityBarometerVisibility
10:30 PM
Sun, Feb 14
36 °FClear.15 mph52%30.45 "Hg10 mi
10:00 PM36 °FClear.13 mph56%30.45 "Hg10 mi
9:30 PM36 °FClear.13 mph56%30.45 "Hg10 mi
9:00 PM36 °FClear.13 mph60%30.45 "Hg10 mi
8:30 PM36 °FClear.15 mph56%30.42 "Hg10 mi
8:00 PM36 °FClear.15 mph60%30.39 "Hg10 mi
7:30 PM36 °FClear.15 mph60%30.39 "Hg10 mi
7:00 PM37 °FClear.15 mph56%30.36 "Hg10 mi
6:30 PM39 °FClear.20 mph42%30.36 "Hg10 mi
6:00 PM39 °FClear.20 mph42%30.36 "Hg10 mi
5:30 PM39 °FSunny.17 mph42%30.36 "Hg10 mi
5:00 PM39 °FSunny.20 mph42%30.33 "Hg10 mi
4:30 PM41 °FSunny.22 mph42%30.33 "Hg10 mi
4:00 PM43 °FSunny.20 mph39%30.33 "Hg10 mi
3:30 PM41 °FSunny.22 mph45%30.30 "Hg10 mi
3:00 PM41 °FScattered clouds.15 mph45%30.30 "HgN/A
2:30 PM43 °FScattered clouds.17 mph46%30.30 "HgN/A
2:00 PM41 °FSunny.17 mph49%30.30 "Hg10 mi
1:30 PM39 °FSunny.22 mph52%30.30 "Hg10 mi
1:00 PM39 °FSunny.17 mph48%30.30 "Hg10 mi
12:30 PM39 °FPassing clouds.20 mph52%30.33 "HgN/A
12:00 PM39 °FPassing clouds.20 mph56%30.33 "HgN/A
11:30 AM39 °FPartly sunny.15 mph56%30.33 "HgN/A
11:00 AM37 °FPartly sunny.17 mph65%30.33 "HgN/A
10:30 AM37 °FPartly sunny.15 mph65%30.33 "HgN/A
10:00 AM37 °FPartly sunny.20 mph65%30.33 "HgN/A
9:30 AM37 °FPartly sunny.17 mph70%30.33 "HgN/A
9:00 AM36 °FPartly sunny.17 mph75%30.33 "HgN/A
8:30 AM36 °FScattered clouds.17 mph75%30.30 "HgN/A
8:00 AM36 °FPartly sunny.13 mph81%30.33 "HgN/A
7:30 AM34 °FSleet. Partly sunny.15 mph81%30.30 "HgN/A
7:00 AM34 °FSleet. Partly sunny.20 mph87%30.30 "HgN/A
6:30 AM34 °FLight rain. Passing clouds.20 mph81%30.27 "HgN/A
6:00 AM36 °FLight rain. Passing clouds.17 mph81%30.24 "HgN/A
5:30 AM36 °FLight rain. Passing clouds.17 mph81%30.21 "HgN/A
5:00 AM36 °FLight rain. Passing clouds.20 mph81%30.21 "HgN/A
4:30 AM37 °FPassing clouds.22 mph75%30.21 "HgN/A
4:00 AM37 °FPassing clouds.22 mph75%30.21 "HgN/A
3:30 AM37 °FPassing clouds.20 mph81%30.21 "HgN/A
3:00 AM37 °FLight rain. Passing clouds.15 mph87%30.18 "HgN/A
2:30 AM39 °FLight rain. Passing clouds.17 mph81%30.24 "HgN/A
2:00 AM39 °FLight rain. Passing clouds.20 mph81%30.15 "HgN/A
1:30 AM41 °FPassing clouds.24 mph76%30.18 "HgN/A
1:00 AM41 °FPassing clouds.22 mph81%30.18 "HgN/A
12:30 AM43 °FPassing clouds.20 mph76%30.15 "HgN/A
12:00 AM43 °FPassing clouds.17 mph81%30.15 "HgN/A
11:30 PM
Sat, Feb 13
43 °FPassing clouds.22 mph81%30.15 "HgN/A
11:00 PM46 °FPassing clouds.17 mph82%30.12 "HgN/A
Weather by CustomWeather, © 2016

See weather overviewHow to use our weather pages